User: anonymous   Login
Location: Axtheid
(49.6213°N, 11.8205°E)
Time: 18:04:38
(UTC+00:00)
Language:

CSL-04 Rocket - Orbit

View from above orbital plane
View from above orbital plane
View from above satellite
View from above satellite

Ground track
Ground track

The orbit data is extracted from the following two-line orbital elements,

1 25732U 99025C   21109.86942414 -.00000017  00000-0  13574-4 0  9998
2 25732  98.9090 146.1763 0038219  57.9546 114.4273 14.17690976135239
Epoch (UTC): 19 April 2021 20:51:58
Eccentricity: 0.0038219
inclination: 98.9090°
perigee height: 805 km
apogee height: 861 km
right ascension of ascending node: 146.1763°
argument of perigee: 57.9546°
revolutions per day: 14.17690976
mean anomaly at epoch: 114.4273°
orbit number at epoch: 13523

The dashed part of the orbit path shows where the satellite is in the earth's shadow,  

DLR